Satellite: HAWKSAT1
Catalog number: 35003
Epoch time:      09168.58115307
Element set:    0038
Inclination:      040.4708 deg
RA of node:       238.0590 deg
Eccentricity:    0.0027383
Arg of perigee:   172.9269 deg
Mean anomaly:     187.1936 deg
Mean motion:   15.39866827 rev/day
Decay rate:       9.26e-06 rev/day^2
Epoch rev:           00441
Checksum:              311

Satellite: CP6
Catalog number: 35004
Epoch time:      09168.57868319
Element set:      23
Inclination:      040.4623 deg
RA of node:       238.0156 deg
Eccentricity:    0.0027466
Arg of perigee:   174.4077 deg
Mean anomaly:     185.7048 deg
Mean motion:   15.40055166 rev/day
Decay rate:      2.804e-05 rev/day^2
Epoch rev:             440
Checksum:              289

Satellite: AEROCUB3
Catalog number: 35005
Epoch time:      09168.58222696
Element set:    0032
Inclination:      040.4775 deg
RA of node:       238.0801 deg
Eccentricity:    0.0026609
Arg of perigee:   171.7315 deg
Mean anomaly:     188.3941 deg
Mean motion:   15.39872243 rev/day
Decay rate:      2.867e-05 rev/day^2
Epoch rev:           00440
Checksum:              299

/EX





More information about the Keps mailing list